Regional Weather Roundup
Issued by NWS

Home | Current Version | Previous Version | Text Only | Print | Product List | Glossary On
Versions: 1 2 3 4 5 6 7 8 9 10 11 12 13 14 15 16 17 18 19 20 21 22 23 24 25 26 27 28 29 30 31 32 33 34 35 36 37 38 39 40 41 42 43 44 45 46 47 48 49 50
000
ASUS43 KMKX 170000
RWRWI

WISCONSIN REGIONAL WEATHER ROUNDUP
NATIONAL WEATHER SERVICE MILWAUKEE/SULLIVAN WI
700 PM CDT WED APR 16 2014

NOTE: "FAIR" INDICATES FEW OR NO CLOUDS BELOW 12,000 FEET WITH NO
SIGNIFICANT WEATHER AND/OR OBSTRUCTIONS TO VISIBILITY.

WIZ001-002-006>008-014>016-023>028-170100-
NORTHWEST WISCONSIN

CITY           SKY/WX    TMP DP  RH WIND       PRES   REMARKS
SUPERIOR ARPT  LGT SNOW  28  27  94 E21G26    30.16R VSB 1   WCI  15
ASHLAND        SNOW      27  26  96 NE22G31   30.16R VSB 1/2 WCI  13
6HR MIN TEMP:  27; 6HR MAX TEMP:  27; 6HR PCP:  0.18;

HAYWARD        SNOW      29  26  89 NE14      30.05R VSB 1/2 WCI  18
6HR MIN TEMP:  28; 6HR MAX TEMP:  29; 6HR PCP:  0.24;

SIREN          LGT SNOW  30  28  95 NE13G20   30.02S VSB 3/4 WCI  20
RICE LAKE      LGT SNOW  34  32  90 NE9       29.98S WCI  27
LADYSMITH      CLOUDY    37  30  77 E12G20    30.01R WCI  29
EAU CLAIRE     NOT AVBL
MENOMONIE      LGT RAIN  41  32  70 N8        29.90S
NEW RICHMOND   LGT SNOW  33  33 100 NE12      29.94R WCI  24
OSCEOLA        SNOW      33  33 100 N9        29.98R VSB 1/2 WCI  25
$$

WIZ003>005-009-010-017-018-170100-
NORTH CENTRAL WISCONSIN

CITY           SKY/WX    TMP DP  RH WIND       PRES   REMARKS
WOODRUFF       LGT SNOW  32  28  84 E9G16     30.07S VSB 1   WCI  24
RHINELANDER    FLURRIES  30  25  81 E21       30.07F WCI  17
6HR MIN TEMP:  26; 6HR MAX TEMP:  30; 6HR PCP:  0.01;

EAGLE RIVER    LGT SNOW  29  26  86 SE12G18   30.09F VSB 3/4 WCI  20
LAND O LAKES   SNOW      30  27  91 SE7       30.12S VSB 1/2 WCI  23
PHILLIPS       CLOUDY    32  27  81 E10G21    30.02S WCI  24
TOMAHAWK       LGT SNOW  32  27  80 E8        30.04F WCI  25
MEDFORD        CLOUDY    36  29  75 E10G20    29.98S WCI  28
MERRILL        CLOUDY    36  28  74 CALM      30.04F
$$

WIZ029-030-035-036-043>047-170100-
CENTRAL WISCONSIN

CITY           SKY/WX    TMP DP  RH WIND       PRES   REMARKS
WAUSAU         CLOUDY    36  28  73 E18G25    30.03S WCI  26
6HR MIN TEMP:  32; 6HR MAX TEMP:  38;

MOSINEE        CLOUDY    37  28  70 E15G23    30.04S WCI  28
MARSHFIELD     CLOUDY    40  30  67 E15       29.99R WCI  32
6HR MIN TEMP:  35; 6HR MAX TEMP:  44;

STEVENS POINT  CLOUDY    37  28  70 E12G22    30.05S WCI  29
WAUPACA        CLOUDY    43  27  52 SE18G28   30.08S
WAUTOMA        NOT AVBL
WISC RAPIDS    CLOUDY    44  30  57 SE12      30.01F
6HR MIN TEMP:  40; 6HR MAX TEMP:  45;

CAMP DOUGLAS   NOT AVBL
$$

WIZ011>013-019>022-031-037>040-048>050-170100-
NORTHEAST WISCONSIN

CITY           SKY/WX    TMP DP  RH WIND       PRES   REMARKS
ANTIGO         CLOUDY    32  26  78 SE20G25   30.08R WCI  20
STURGEON BAY   CLOUDY    34  27  75 E13G20    30.22F WCI  25
6HR MIN TEMP:  32; 6HR MAX TEMP:  37;

GREEN BAY      CLOUDY    38  24  57 SE21      30.16F WCI  28
6HR MIN TEMP:  37; 6HR MAX TEMP:  39;

MANITOWOC      NOT AVBL
APPLETON       CLOUDY    37  25  60 SE20G28   30.11F WCI  27
CLINTONVILLE   CLOUDY    37  27  65 SE14G22   30.12R WCI  29
OSHKOSH        CLOUDY    40  25  55 SE14G28   30.10S WCI  32
6HR MIN TEMP:  40; 6HR MAX TEMP:  45;

$$

WIZ032>034-041-042-053>061-170100-
SOUTHWEST WISCONSIN

CITY           SKY/WX    TMP DP  RH WIND       PRES   REMARKS
LA CROSSE      CLOUDY    53  27  36 SE24G30   29.89F
6HR MIN TEMP:  53; 6HR MAX TEMP:  55;

SPARTA         CLOUDY    51  28  40 S14G22    29.95R
VIROQUA        MOCLDY    49  29  46 SE20G29   29.93R
BOSCOBEL       CLOUDY    53  27  36 MISG      29.97R
6HR MIN TEMP:  52; 6HR MAX TEMP:  57;

PRAIRIE DU CHI CLOUDY    54  25  33 SE12G21   29.93R
PLATTEVILLE    FAIR      51  29  43 SE20G29   29.97R
$$

WIZ056-057-062-063-064-067-068-170100-
SOUTH CENTRAL WISCONSIN

CITY           SKY/WX    TMP DP  RH WIND       PRES   REMARKS
BARABOO/DELLS  CLOUDY    48  29  47 SE15G22   29.99F
LONE ROCK      NOT AVBL
WATERTOWN      CLOUDY    46  29  52 SE13G20   30.08R
MADISON        CLOUDY    49  30  48 SE16      30.02F
6HR MIN TEMP:  47; 6HR MAX TEMP:  52;

MIDDLETON      MOCLDY    50  28  42 S20G28    30.02S
MONROE         CLOUDY    49  30  47 SE23G32   30.00S
JANESVILLE     CLOUDY    52  25  35 SE20G26   30.05F
$$

WIZ051-052-058>065-066-070>072-170100-
SOUTHEAST WISCONSIN

CITY           SKY/WX    TMP DP  RH WIND       PRES   REMARKS
MILWAUKEE      CLOUDY    41  28  60 SE21      30.15F
6HR MIN TEMP:  41; 6HR MAX TEMP:  45;

WAUKESHA       CLOUDY    43  23  45 SE20G25   30.12F
MILWAUKEE/TIMM CLEAR     43  25  49 SE10G21   30.14F
RACINE         MOCLDY    42  27  55 SE17G24   30.16F
6HR MIN TEMP:  40; 6HR MAX TEMP:  44;

BURLINGTON     MOCLDY    44  27  51 SW14      30.10F
KENOSHA        MOCLDY    43  27  53 SE13G22   30.13F
6HR MIN TEMP:  43; 6HR MAX TEMP:  47;

FOND DU LAC    CLOUDY    41  24  51 SE22G29   30.10F
6HR MIN TEMP:  41; 6HR MAX TEMP:  46;

SHEBOYGAN      CLOUDY    39  23  52 SE15G24   30.16F WCI  31
6HR MIN TEMP:  37; 6HR MAX TEMP:  40;

WEST BEND      CLOUDY    37  25  60 SE14G20   30.13F WCI  29
JUNEAU         CLOUDY    44  24  45 SE20G26   30.09R
$$

LSZ147-162-170100-
LAKE SUPERIOR

STATION/POSITION TIME  TEMP    WIND        PRES    WAVE
                       AIR SEA DIR/SP/G            HT/PER
                 (UTC) (F)     (DEG/KT/KT) (MB)    (FT/S)
DEVILS ISLAND    2300   28      60/ 28/ 32 1023.7F
PORT WING        2300   28      40/ 22/ 26 1021.3R
SAXON HARBOR     2300           50/ 20/ 23 1020.7
$$

LMZ867-665-643>646-170100-
LAKE MICHIGAN

STATION/POSITION TIME  TEMP    WIND        PRES    WAVE
                       AIR SEA DIR/SP/G            HT/PER
                 (UTC) (F)     (DEG/KT/KT) (MB)    (FT/S)
NORTHPORT PIER   2300   31     100/ 19/ 23 1025.1R
SISTER BAY       2323   32     120/ 17/ 24   N/A
SHEBOYGAN LAKESH 2300   38     120/ 21/ 22 1022.8F
PORT WASHINGTON  2300   39     120/ 14/ 19 1021.7F
MILWAUKEE LAKESH 2300   38     130/ 18/ 21   N/A
KENOSHA   LAKESH 2300   40     130/ 21/ 24   N/A
$$

TC  - TEMPERATURE IN CELSIUS
VSB - VISIBILITY IN STATUTE MILES
WCI - WIND CHILL INDEX
HX  - HEAT INDEX




USA.gov is the U.S. government's official web portal to all federal, state and local government web resources and services.